Regional Weather Roundup
Issued by NWS

Home | Current Version | Previous Version | Graphics & Text | Print | Product List | Glossary On
Versions: 1 2 3 4 5 6 7 8 9 10 11 12 13 14 15 16 17 18 19 20 21 22 23 24 25 26 27 28 29 30 31 32 33 34 35 36 37 38 39 40 41 42 43 44 45 46 47 48 49 50
000
ASUS43 KLOT 262200
RWRIL

ILLINOIS REGIONAL WEATHER ROUNDUP
NATIONAL WEATHER SERVICE CHICAGO/ROMEOVILLE IL
400 PM CST MON JAN 26 2015

NOTE: "FAIR" INDICATES FEW OR NO CLOUDS BELOW 12,000 FEET WITH NO
SIGNIFICANT WEATHER AND/OR OBSTRUCTIONS TO VISIBILITY.

* THESE STATIONS ARE NOT UNDER NWS QUALITY CONTROL. THEY ALSO MAY NOT
  REPORT WEATHER SUCH AS PRECIPITATION OR FOG.

ILZ001-002-007-009-015-016-024-262300-
NORTHWEST ILLINOIS

CITY           SKY/WX    TMP DP  RH WIND       PRES   REMARKS
MOLINE         CLOUDY    31  27  85 SW6       29.82R WCI  25
STERLING*      CLOUDY    27  23  86 S5        29.85R WCI  21
$$

ILZ003-004-008-010-011-017-018-262300-
NORTH CENTRAL ILLINOIS

CITY           SKY/WX    TMP DP  RH WIND       PRES   REMARKS
ROCKFORD       FRZ DRZL  24  21  88 SE8       29.86R FOG     WCI  15
ROCHELLE*      CLOUDY    23  21  92 SE12      29.84S FOG     WCI  12
$$

ILZ005-006-012>014-019>023-262300-
NORTHEAST ILLINOIS

CITY           SKY/WX    TMP DP  RH WIND       PRES   REMARKS
CHICAGO-OHARE  FLURRIES  26  20  77 S8        29.86S WCI  18
CHICAGO-MIDWAY FLURRIES  28  21  75 S7        29.87S WCI  21
AURORA         CLOUDY    26  20  77 SE9       29.86R HAZE    WCI  17
WAUKEGAN       CLOUDY    25  21  85 SE8       29.86R WCI  16
DUPAGE AIRPORT LGT SNOW  25  20  81 S7        29.85S WCI  17
WHEELING       CLOUDY    26  21  81 S6        29.88S WCI  19
NORTHERLY ISL    N/A     26  22  84 SE6         N/A  WCI  20
$$

LMZ740>746-262300-
SOUTHERN LAKE MICHIGAN

STATION/POSITION SKY/WX   TEMP    WIND        PRES    VSBY  WAVE
                          AIR SEA DIR/SP/G                  HT/PER
                          (F)     (DEG/KT/KT) (MB)    (MI)  (FT/S)
WAUKEGAN HARBOR            26     150/  8/  9   N/A
HARRISON CRIB              25     170/  7/  8   N/A
BURNHAM HARBOR             26     130/  5/  7   N/A
CALUMET HARBOR             26     170/  5/  7   N/A
MICHIGAN CITY              24      CALM  /  1   N/A
$$

ILZ025>027-034>036-040-047-049-050-058-095>099-262300-
WEST-CENTRAL ILLINOIS

CITY           SKY/WX    TMP DP  RH WIND       PRES   REMARKS
QUINCY         SUNNY     41  34  76 SW7       29.84R
$$

ILZ028>032-037-038-041>044-048-051>054-059>061-262300-
CENTRAL ILLINOIS

CITY           SKY/WX    TMP DP  RH WIND       PRES   REMARKS
DECATUR        CLOUDY    29  28  96 S9        29.89S WCI  20
PEORIA         CLOUDY    29  26  89 S10       29.86R FOG     WCI  20
SPRINGFIELD    CLOUDY    32  27  81 S9        29.88S WCI  24
TAYLORVILLE    NOT AVBL
$$

ILZ033-039-045-046-055>057-062-063-262300-
EAST-CENTRAL ILLINOIS

CITY           SKY/WX    TMP DP  RH WIND       PRES   REMARKS
CHAMPAIGN      CLOUDY    27  23  85 S8        29.89S WCI  19
MATTOON        FLURRIES  26  22  84 S5        29.90R WCI  20
$$

ILZ079-100>102-262300-
SOUTHWEST ILLINOIS

CITY           SKY/WX    TMP DP  RH WIND       PRES   REMARKS
BELLEVILLE     CLOUDY    37  30  78 VRB3      29.90R
CAHOKIA*       PTSUNNY   39  30  70 SE6       29.91R WCI  35
$$

ILZ064>066-069>071-074>076-080>082-084>086-088>090-092>094-262300-
SOUTH-CENTRAL ILLINOIS

CITY           SKY/WX    TMP DP  RH WIND       PRES   REMARKS
CARBONDALE     CLOUDY    35  28  75 S14       29.88F WCI  26
MARION         CLOUDY    36  28  75 S9        29.91F WCI  29
MT. VERNON     CLOUDY    32  25  74 CALM      29.92S
$$

ILZ067-068-072-073-078-083-087-091-262300-
SOUTHEAST ILLINOIS

CITY           SKY/WX    TMP DP  RH WIND       PRES   REMARKS
LAWRENCEVILLE  LGT SNOW  28  26  92 S5        29.93F VSB 1   WCI  23
ROBINSON*      LGT SNOW  28  25  87 SW6       29.93F WCI  22
$$

ABBREVIATIONS USED IN REMARKS
   TC - TEMPERATURE IN CELSIUS
  WCI - WIND CHILL INDEX
   HX - HEAT INDEX
  VSB - VISIBILITY
$$




USA.gov is the U.S. government's official web portal to all federal, state and local government web resources and services.